Showing default

GONETS M 16 (M26), 44907

Orbit data source: Space-Track

GONETS M 16 (M26), 44907 is a payload satellite owned by Gonets (CIS) in LEO that was launched on Thu, 26 Dec 2019 UTC via an ROKOT launch vehicle from the Plesetsk Missile And Space Complex (PKMTR). Payload-class satellites include a variety of spacecraft equipped with specific instruments for various scientific and technological missions. These include communications satellites like Starlink; space stations such as the ISS; scientific satellites like the Hubble; Earth observation satellites from companies like Planet Labs, Umbra, and HawkEye 360; GPS; miniature CubeSats for education and research; and military/defense satellites.

Loading next visibility...
Identifier
44907, 2019-096C
Orbit
LEO
Country
Flag of CISCIS
Related business
Manufacturer
Resehetnev ISS
Mission
Operational Commercial Communications
Bus & Motor
STRELA-3M, Unknown motor
Mass
225 kg wet, 225 kg dry
Launch date (UTC)
2019-12-26 (6 years ago)
Launch vehicle
ROKOT
Launch site
Plesetsk Missile And Space Complex (PKMTR)
Object type
Payload
Rocket body
Debris
Shape & HBR
Cyl + 1 Ant, 3.5 m
Radar Cross Section
1.798 m², Large (>1 m²)

Expand to show TLE details & history
Last TLE update: 15 hours ago

TLE from 15 hours ago
0 GONETS M 16 (M26)
1 44907U 19096C   25311.25374965  .00000052  00000-0  30354-3 0  9997
2 44907  82.5221 221.6737 0011681 347.1810  12.8971 12.42860607266069
Epoch: 2025-11-07T06:05Z
TLE epoch observation values (Epoch: 2025-11-07T06:05:23.969Z)
Latitude
-0.00004°
Longitude
83.62346°
Altitude
1,488.235 km
Speed
7.124 km/s
True Right ascension
14h 46m 41s
True Declination
0° 00' 00"
Sunlit
Object was in daylight at epoch
Visualization orbit readout
Latitude
Unknown
Longitude
Unknown
Altitude
Unknown
Speed
Unknown
Apparent Right ascension
Unknown
Apparent Declination
Unknown
Sunlit
N/A
Visualization observer readout
Local Sidereal Time
17:43:12
Azimuth
Unknown
Elevation
Unknown
Doppler factor
Unknown
Orbital elements
Apogee altitude
1,501.043 km
Perigee altitude
1,482.658 km
Semi-major axis
7,869.987 km
Eccentricity
0.00117
Inclination
82.5221°
RAAN
221.6737°
Arg. of periapsis
347.181°
True anomaly
12.92702°
Mean anomaly
12.8971°
Eccentric anomaly
12.91206°
Mean motion
3.10872 °/min
Orbital period
115.8 mins
BSTAR
0.00030354
Loading maneuver chart data...
Computing Atmospheric mass density...
Loading historical data...
Loading historical data...
Loading historical data...
Loading historical data...
Loading historical data...
Loading historical data...
Loading historical data...
Other satellites on launch #96 in the year 2019 (2019-12-26 UTC)

Documentation

Showing up to 5 results
|